• In Hungary
  • List of Countries
  • For 7 days
  • Water Temperature
  • Satellite Maps
  • Weather Map
  • News
  • Weather Widgets
  • user-avatar
    Login

    Hourly Weather Peredil's'ke

    Today, 15 October, Monday

    Time Temperature Precipitation Wind Pressure Humidity
    00:00 +14°C° 0 mm 2 mps 765 mmHg 69%
    01:00 +14°C° 0 mm 2 mps 765 mmHg 71%
    02:00 +13°C° 0 mm 2 mps 765 mmHg 74%
    03:00 +13°C° 0 mm 1 mps 765 mmHg 77%
    04:00 +13°C° 0 mm 1 mps 765 mmHg 79%
    05:00 +13°C° 0 mm 1 mps 765 mmHg 81%
    06:00 +12°C° 0 mm 1 mps 765 mmHg 83%
    07:00 +14°C° 0 mm 1 mps 766 mmHg 78%
    08:00 +15°C° 0 mm 2 mps 766 mmHg 74%
    09:00 +16°C° 0 mm 2 mps 766 mmHg 67%
    10:00 +18°C° 0 mm 2 mps 766 mmHg 60%
    11:00 +20°C° 0 mm 2 mps 766 mmHg 54%
    12:00 +21°C° 0 mm 3 mps 766 mmHg 47%
    13:00 +22°C° 0 mm 3 mps 766 mmHg 45%
    14:00 +24°C° 0 mm 3 mps 766 mmHg 42%
    15:00 +25°C° 0 mm 3 mps 766 mmHg 41%
    16:00 +22°C° 0 mm 3 mps 766 mmHg 45%
    17:00 +21°C° 0 mm 2 mps 766 mmHg 49%
    18:00 +20°C° 0 mm 2 mps 766 mmHg 53%
    19:00 +19°C° 0 mm 2 mps 766 mmHg 56%
    20:00 +18°C° 0 mm 2 mps 766 mmHg 59%
    21:00 +18°C° 0 mm 2 mps 766 mmHg 62%
    22:00 +17°C° 0 mm 2 mps 766 mmHg 64%
    23:00 +17°C° 0 mm 2 mps 766 mmHg 67%

    Tomorrow, 16 October, Tuesday

    Time Temperature Precipitation Wind Pressure Humidity
    00:00 +16°C° 0 mm 2 mps 766 mmHg 70%
    01:00 +16°C° 0 mm 1 mps 766 mmHg 72%
    02:00 +15°C° 0 mm 1 mps 766 mmHg 74%
    03:00 +15°C° 0 mm 1 mps 766 mmHg 77%
    04:00 +14°C° 0 mm 1 mps 766 mmHg 78%
    05:00 +14°C° 0 mm 1 mps 766 mmHg 80%
    06:00 +14°C° 0 mm 1 mps 766 mmHg 82%
    07:00 +15°C° 0 mm 1 mps 767 mmHg 77%
    08:00 +16°C° 0 mm 1 mps 767 mmHg 72%
    09:00 +17°C° 0 mm 2 mps 767 mmHg 67%
    10:00 +19°C° 0 mm 2 mps 767 mmHg 59%
    11:00 +21°C° 0 mm 2 mps 767 mmHg 52%
    12:00 +23°C° 0 mm 2 mps 766 mmHg 45%
    13:00 +24°C° 0 mm 2 mps 766 mmHg 41%
    14:00 +25°C° 0 mm 2 mps 766 mmHg 38%
    15:00 +25°C° 0 mm 2 mps 766 mmHg 34%
    16:00 +24°C° 0 mm 2 mps 766 mmHg 38%
    17:00 +21°C° 0 mm 2 mps 766 mmHg 41%
    18:00 +21°C° 0 mm 1 mps 765 mmHg 45%
    19:00 +20°C° 0 mm 1 mps 766 mmHg 47%
    20:00 +19°C° 0 mm 1 mps 766 mmHg 49%
    21:00 +18°C° 0 mm 1 mps 766 mmHg 51%
    22:00 +18°C° 0 mm 1 mps 766 mmHg 53%
    23:00 +16°C° 0 mm 1 mps 766 mmHg 55%

    Day after tomorrow, 17 October, Wednesday

    Time Temperature Precipitation Wind Pressure Humidity
    00:00 +16°C° 0 mm 1 mps 766 mmHg 56%
    01:00 +15°C° 0 mm 1 mps 766 mmHg 58%
    02:00 +15°C° 0 mm 1 mps 766 mmHg 59%
    03:00 +14°C° 0 mm 0 mps 766 mmHg 61%
    04:00 +13°C° 0 mm 0 mps 765 mmHg 62%
    05:00 +13°C° 0 mm 0 mps 765 mmHg 64%
    06:00 +13°C° 0 mm 0 mps 765 mmHg 65%
    07:00 +15°C° 0 mm 1 mps 765 mmHg 61%
    08:00 +16°C° 0 mm 1 mps 765 mmHg 57%
    09:00 +18°C° 0 mm 1 mps 765 mmHg 53%
    10:00 +20°C° 0 mm 1 mps 765 mmHg 49%
    11:00 +22°C° 0 mm 1 mps 765 mmHg 44%
    12:00 +23°C° 0 mm 2 mps 765 mmHg 39%
    13:00 +24°C° 0 mm 2 mps 765 mmHg 37%
    14:00 +24°C° 0 mm 2 mps 764 mmHg 35%
    15:00 +25°C° 0 mm 2 mps 764 mmHg 33%
    16:00 +23°C° 0 mm 2 mps 764 mmHg 37%
    17:00 +21°C° 0 mm 2 mps 764 mmHg 40%
    18:00 +21°C° 0 mm 1 mps 764 mmHg 43%
    19:00 +19°C° 0 mm 2 mps 764 mmHg 45%
    20:00 +18°C° 0 mm 2 mps 764 mmHg 47%
    21:00 +17°C° 0 mm 2 mps 764 mmHg 48%
    22:00 +17°C° 0 mm 2 mps 764 mmHg 49%
    23:00 +16°C° 0 mm 2 mps 764 mmHg 51%

    18 October, Thursday

    Time Temperature Precipitation Wind Pressure Humidity
    00:00 +16°C° 0 mm 2 mps 764 mmHg 52%
    01:00 +15°C° 0 mm 2 mps 764 mmHg 53%
    02:00 +15°C° 0 mm 2 mps 764 mmHg 54%
    03:00 +15°C° 0 mm 2 mps 764 mmHg 55%
    04:00 +14°C° 0 mm 2 mps 764 mmHg 56%
    05:00 +14°C° 0 mm 2 mps 764 mmHg 57%
    06:00 +13°C° 0 mm 2 mps 764 mmHg 58%
    07:00 +14°C° 0 mm 2 mps 764 mmHg 54%
    08:00 +15°C° 0 mm 2 mps 764 mmHg 51%
    09:00 +16°C° 0 mm 2 mps 764 mmHg 47%
    10:00 +18°C° 0 mm 3 mps 764 mmHg 42%
    11:00 +20°C° 0 mm 3 mps 764 mmHg 37%
    12:00 +22°C° 0 mm 3 mps 763 mmHg 32%
    13:00 +22°C° 0 mm 3 mps 763 mmHg 30%
    14:00 +24°C° 0 mm 3 mps 763 mmHg 28%
    15:00 +24°C° 0 mm 3 mps 763 mmHg 27%
    16:00 +22°C° 0 mm 3 mps 762 mmHg 30%
    17:00 +20°C° 0 mm 3 mps 762 mmHg 33%
    18:00 +19°C° 0 mm 3 mps 762 mmHg 37%
    19:00 +18°C° 0 mm 3 mps 762 mmHg 39%
    20:00 +17°C° 0 mm 3 mps 762 mmHg 41%
    21:00 +16°C° 0 mm 3 mps 763 mmHg 44%
    22:00 +16°C° 0 mm 3 mps 763 mmHg 46%
    23:00 +14°C° 0 mm 3 mps 763 mmHg 48%

    19 October, Friday

    Time Temperature Precipitation Wind Pressure Humidity
    00:00 +14°C° 0 mm 2 mps 763 mmHg 50%
    01:00 +14°C° 0 mm 2 mps 763 mmHg 52%
    02:00 +13°C° 0 mm 2 mps 763 mmHg 54%
    03:00 +13°C° 0 mm 2 mps 763 mmHg 56%
    04:00 +13°C° 0 mm 2 mps 762 mmHg 58%
    05:00 +12°C° 0 mm 2 mps 762 mmHg 60%
    06:00 +12°C° 0 mm 2 mps 762 mmHg 61%
    07:00 +12°C° 0 mm 3 mps 762 mmHg 59%
    08:00 +13°C° 0 mm 3 mps 762 mmHg 56%
    09:00 +14°C° 0 mm 3 mps 762 mmHg 53%
    10:00 +17°C° 0 mm 4 mps 762 mmHg 48%
    11:00 +19°C° 0 mm 4 mps 762 mmHg 43%
    12:00 +21°C° 0 mm 4 mps 761 mmHg 38%
    13:00 +21°C° 0 mm 4 mps 761 mmHg 37%
    14:00 +22°C° 0 mm 4 mps 761 mmHg 36%
    15:00 +22°C° 0 mm 4 mps 760 mmHg 35%
    16:00 +21°C° 0 mm 4 mps 760 mmHg 39%
    17:00 +19°C° 0 mm 3 mps 760 mmHg 43%
    18:00 +18°C° 0 mm 3 mps 760 mmHg 47%
    19:00 +17°C° 0 mm 3 mps 760 mmHg 49%
    20:00 +16°C° 0 mm 3 mps 760 mmHg 52%
    21:00 +16°C° 0 mm 3 mps 760 mmHg 55%
    22:00 +14°C° 0 mm 3 mps 759 mmHg 57%
    23:00 +14°C° 0 mm 3 mps 759 mmHg 58%

    20 October, Saturday

    Time Temperature Precipitation Wind Pressure Humidity
    00:00 +13°C° 0 mm 3 mps 759 mmHg 60%
    01:00 +13°C° 0 mm 3 mps 759 mmHg 62%
    02:00 +12°C° 0 mm 3 mps 759 mmHg 64%
    03:00 +12°C° 0 mm 3 mps 759 mmHg 65%
    04:00 +12°C° 0 mm 3 mps 758 mmHg 68%
    05:00 +12°C° 0 mm 3 mps 758 mmHg 70%
    06:00 +11°C° 0 mm 3 mps 758 mmHg 72%
    07:00 +12°C° 0 mm 3 mps 758 mmHg 72%
    08:00 +13°C° 0 mm 3 mps 758 mmHg 71%
    09:00 +14°C° 0 mm 4 mps 758 mmHg 71%
    10:00 +15°C° 0.1 mm 4 mps 758 mmHg 69%
    11:00 +18°C° 0.1 mm 4 mps 758 mmHg 66%
    12:00 +19°C° 0.1 mm 4 mps 758 mmHg 64%
    13:00 +19°C° 0.2 mm 3 mps 757 mmHg 65%
    14:00 +19°C° 0.2 mm 3 mps 757 mmHg 65%
    15:00 +20°C° 0.2 mm 3 mps 757 mmHg 65%
    16:00 +19°C° 0.1 mm 3 mps 757 mmHg 69%
    17:00 +18°C° 0.1 mm 2 mps 757 mmHg 73%
    18:00 +17°C° 0.1 mm 2 mps 757 mmHg 78%
    19:00 +16°C° 0 mm 2 mps 757 mmHg 80%
    20:00 +16°C° 0 mm 2 mps 757 mmHg 83%
    21:00 +15°C° 0 mm 2 mps 756 mmHg 86%
    22:00 +15°C° 0 mm 2 mps 756 mmHg 87%
    23:00 +15°C° 0 mm 2 mps 756 mmHg 88%
    Show more